Terminal Aerodrome Forecast
Issued by NWS Newport/Morehead City, NC

Home | Current Version | Previous Version | Graphics & Text | Print | Product List | Glossary On
Versions: 1 2 3 4 5 6 7 8 9 10 11 12 13 14 15 16 17 18
542
FTUS42 KMHX 170320 AAA
TAFEWN
TAF AMD
KEWN 170320Z 1703/1724 VRB03KT P6SM SCT025 BKN080
      TEMPO 1710/1714 4SM BR BKN020
     FM171400 00000KT P6SM BKN015
     FM172200 21006KT P6SM BKN110=

USA.gov is the U.S. government's official web portal to all federal, state and local government web resources and services.